St. Cloud, MN

2:24 PM CST on December 15, 2019 (GMT -0600)
Saint Cloud Regional

Weather History for KSTC - May, 2019

Change the Weather History Date:

Monday, May 6, 2019

  Actual Average Record
Temperature  
Mean Temperature 48 °F 54 °F  
Max Temperature 56 °F 66 °F 89 °F (2016)
Min Temperature 39 °F 41 °F 24 °F (1944)
Degree Days  
Heating Degree Days 17 12  
Month to date heating degree days 108 77  
Since 1 July heating degree days 8906 8244  
Cooling Degree Days 0 0  
Month to date cooling degree days 0 0  
Year to date cooling degree days 0 2  
Moisture  
Dew Point 26 °F    
Average Humidity 43    
Maximum Humidity 57    
Minimum Humidity 28    
Precipitation  
Precipitation 0.00 in 0.10 in 1.88 in (1936)
Month to date precipitation 0.51 0.58  
Year to date precipitation 7.86 5.94  
Snow  
Snow 0.00 in 0.00 in T in (1906)
Month to date snowfall 0.0 0.0  
Since 1 July snowfall 68.5 45.7  
Snow Depth 0.00 in    
Sea Level Pressure  
Sea Level Pressure 30.16 in    
Wind  
Wind Speed 9 mph (NNW)    
Max Wind Speed 21 mph    
Max Gust Speed 30 mph    
Visibility 10 miles    
Events      
T = Trace of Precipitation, MM = Missing Value Source: NWS Daily Summary

Daily Weather History Graph

Daily Weather History Graph

Search for Another Location

Airport or City:

Astronomy

May. 06, 2019 Rise Set
Actual Time 5:57 AM CDT 8:29 PM CDT
Civil Twilight 5:23 AM CDT 9:02 PM CDT
Nautical Twilight 4:42 AM CDT 9:44 PM CDT
Astronomical Twilight 3:54 AM CDT 10:33 PM CDT
Moon 7:19 AM CDT (5/6) 10:30 PM CDT (5/6)
Length of Visible Light 15h 38m
Length of Day
14h 31m
Waxing Crescent, 3% of the Moon is Illuminated
May 6
Waxing Crescent
May 11
First Quarter
May 18
Full
May 26
Last Quarter
Jun 3
New

Hourly Weather History & Observations

Time (CDT) Temp. Windchill Dew Point Humidity Pressure Visibility Wind Dir Wind Speed Gust Speed Precip Events Conditions
12:53 AM 46.9 °F - 30.0 °F 52% 30.05 in 10.0 mi North 5.8 mph - N/A   Overcast
1:53 AM 46.0 °F 43.9 °F 30.0 °F 54% 30.04 in 10.0 mi NNW 4.6 mph - N/A   Overcast
2:53 AM 44.1 °F 40.1 °F 28.9 °F 55% 30.06 in 10.0 mi NNW 6.9 mph - N/A   Overcast
3:53 AM 44.1 °F 39.5 °F 28.9 °F 55% 30.08 in 10.0 mi NNE 8.1 mph - N/A   Overcast
4:53 AM 43.0 °F 38.8 °F 27.0 °F 53% 30.09 in 10.0 mi NNE 6.9 mph - N/A   Overcast
5:53 AM 43.0 °F 37.7 °F 28.0 °F 56% 30.12 in 10.0 mi North 9.2 mph - N/A   Overcast
6:53 AM 42.1 °F 37.7 °F 28.0 °F 58% 30.14 in 10.0 mi North 6.9 mph - N/A   Overcast
7:53 AM 43.0 °F 38.8 °F 28.0 °F 56% 30.16 in 10.0 mi North 6.9 mph - N/A   Overcast
8:53 AM 44.1 °F 40.8 °F 28.0 °F 53% 30.17 in 10.0 mi North 5.8 mph - N/A   Overcast
9:53 AM 48.0 °F - 25.0 °F 41% 30.18 in 10.0 mi North 10.4 mph - N/A   Overcast
10:53 AM 50.0 °F - 21.9 °F 33% 30.17 in 10.0 mi NNW 11.5 mph 20.7 mph N/A   Clear
11:53 AM 52.0 °F - 21.0 °F 30% 30.18 in 10.0 mi NNW 17.3 mph 25.3 mph N/A   Clear
12:53 PM 53.1 °F - 24.1 °F 32% 30.18 in 10.0 mi NNW 12.7 mph 23.0 mph N/A   Clear
1:53 PM 54.0 °F - 21.9 °F 29% 30.17 in 10.0 mi NNW 11.5 mph 21.9 mph N/A   Clear
2:53 PM 54.0 °F - 23.0 °F 30% 30.17 in 10.0 mi NW 12.7 mph 21.9 mph N/A   Clear
3:53 PM 54.0 °F - 23.0 °F 30% 30.17 in 10.0 mi NNW 5.8 mph 19.6 mph N/A   Clear
4:53 PM 54.0 °F - 23.0 °F 30% 30.17 in 10.0 mi NNW 9.2 mph 19.6 mph N/A   Clear
5:53 PM 53.1 °F - 23.0 °F 31% 30.17 in 10.0 mi NNW 9.2 mph 18.4 mph N/A   Clear
6:53 PM 52.0 °F - 23.0 °F 32% 30.19 in 10.0 mi NNW 6.9 mph - N/A   Partly Cloudy
7:53 PM 50.0 °F - 26.1 °F 39% 30.22 in 10.0 mi NW 9.2 mph - N/A   Partly Cloudy
8:53 PM 48.9 °F - 25.0 °F 39% 30.24 in 10.0 mi WNW 10.4 mph - N/A   Clear
9:53 PM 46.0 °F 41.9 °F 28.0 °F 50% 30.26 in 10.0 mi NW 8.1 mph - N/A   Clear
10:53 PM 43.0 °F 38.2 °F 26.1 °F 51% 30.26 in 10.0 mi NW 8.1 mph - N/A   Clear
11:53 PM 42.1 °F 37.7 °F 27.0 °F 55% 30.27 in 10.0 mi NW 6.9 mph - N/A   Clear